LDPE-1

Last updated on Tue Sep 16 2025 00:02:50 GMT+0000 (Coordinated Universal Time)

1 49818U 21118B 25258.58856264 .00000131 00000+0 00000+0 0 9992 2 49818 3.0397 82.3227 0001050 164.1022 340.3485 1.00727091 13884
UTC large
Height (km)
Speed (km/s)
/
Latitude / Longitude
Inclination (degrees)
Orbital Period (minutes)
Azimuth
Elevation
Range (km)
Doppler Factor

Next 0 passes for location: London (51.5072 / 0.1276)

Sorry there are no passes over London.